When you browse on this site, cookies collect data to enhance your experience and personalize the content and advertising you see.
Visit our Privacy Policy to learn more. By continuing to use the site, you agree to this use of cookies and data.
  • In Hungary
  • List of Countries
  • For 7 days
  • Water Temperature
  • Satellite Maps
  • Weather Map
  • News
  • Weather Widgets
  • user-avatar
    Login

    Hourly Weather Ripollet

    Today, 23 January, Wednesday

    Time Temperature Precipitation Wind Pressure Humidity
    00:00 +5°C° 0 mm 3 mps 744 mmHg 45%
    01:00 +4°C° 0 mm 3 mps 743 mmHg 49%
    02:00 +5°C° 0 mm 2 mps 743 mmHg 53%
    03:00 +5°C° 0 mm 2 mps 742 mmHg 56%
    04:00 +5°C° 0 mm 2 mps 742 mmHg 59%
    05:00 +4°C° 0 mm 2 mps 741 mmHg 61%
    06:00 +4°C° 0 mm 2 mps 741 mmHg 66%
    07:00 +4°C° 0.1 mm 3 mps 740 mmHg 67%
    08:00 +4°C° 0.1 mm 3 mps 739 mmHg 68%
    09:00 +5°C° 0.1 mm 3 mps 738 mmHg 70%
    10:00 +7°C° 0.1 mm 3 mps 738 mmHg 66%
    11:00 +8°C° 0.1 mm 3 mps 737 mmHg 62%
    12:00 +9°C° 0.1 mm 3 mps 737 mmHg 59%
    13:00 +10°C° 0 mm 3 mps 737 mmHg 55%
    14:00 +11°C° 0 mm 3 mps 737 mmHg 52%
    15:00 +12°C° 0 mm 3 mps 737 mmHg 49%
    16:00 +11°C° 0 mm 4 mps 737 mmHg 49%
    17:00 +9°C° 0 mm 5 mps 738 mmHg 49%
    18:00 +8°C° 0 mm 5 mps 738 mmHg 48%
    19:00 +7°C° 0 mm 5 mps 739 mmHg 51%
    20:00 +7°C° 0 mm 5 mps 739 mmHg 53%
    21:00 +6°C° 0 mm 5 mps 740 mmHg 55%
    22:00 +5°C° 0 mm 6 mps 740 mmHg 52%
    23:00 +4°C° 0 mm 7 mps 741 mmHg 49%

    Tomorrow, 24 January, Thursday

    Time Temperature Precipitation Wind Pressure Humidity
    00:00 +4°C° 0 mm 8 mps 741 mmHg 46%
    01:00 +2°C° 0 mm 8 mps 741 mmHg 42%
    02:00 +2°C° 0 mm 8 mps 742 mmHg 38%
    03:00 +2°C° 0 mm 9 mps 742 mmHg 34%
    04:00 +2°C° 0 mm 9 mps 742 mmHg 34%
    05:00 +2°C° 0 mm 9 mps 742 mmHg 34%
    06:00 +2°C° 0 mm 10 mps 742 mmHg 34%
    07:00 +3°C° 0 mm 9 mps 743 mmHg 33%
    08:00 +4°C° 0 mm 8 mps 743 mmHg 31%
    09:00 +5°C° 0 mm 7 mps 744 mmHg 29%
    10:00 +7°C° 0 mm 6 mps 744 mmHg 25%
    11:00 +9°C° 0 mm 5 mps 745 mmHg 21%
    12:00 +10°C° 0 mm 5 mps 745 mmHg 17%
    13:00 +11°C° 0 mm 4 mps 745 mmHg 18%
    14:00 +11°C° 0 mm 3 mps 745 mmHg 18%
    15:00 +12°C° 0 mm 2 mps 746 mmHg 19%
    16:00 +10°C° 0 mm 3 mps 746 mmHg 23%
    17:00 +9°C° 0 mm 3 mps 747 mmHg 27%
    18:00 +8°C° 0 mm 3 mps 748 mmHg 30%
    19:00 +7°C° 0 mm 3 mps 748 mmHg 33%
    20:00 +5°C° 0 mm 4 mps 749 mmHg 36%
    21:00 +4°C° 0 mm 4 mps 749 mmHg 39%
    22:00 +3°C° 0 mm 4 mps 749 mmHg 39%
    23:00 +3°C° 0 mm 4 mps 750 mmHg 39%

    Day after tomorrow, 25 January, Friday

    Time Temperature Precipitation Wind Pressure Humidity
    00:00 +3°C° 0 mm 4 mps 750 mmHg 39%
    01:00 +1°C° 0 mm 4 mps 750 mmHg 37%
    02:00 +1°C° 0 mm 4 mps 750 mmHg 36%
    03:00 +1°C° 0 mm 4 mps 750 mmHg 35%
    04:00 +1°C° 0 mm 4 mps 750 mmHg 34%
    05:00 +1°C° 0 mm 4 mps 750 mmHg 34%
    06:00 +1°C° 0 mm 4 mps 750 mmHg 33%
    07:00 +3°C° 0 mm 4 mps 750 mmHg 32%
    08:00 +4°C° 0 mm 3 mps 750 mmHg 31%
    09:00 +4°C° 0 mm 3 mps 750 mmHg 30%
    10:00 +7°C° 0 mm 3 mps 750 mmHg 30%
    11:00 +9°C° 0 mm 2 mps 749 mmHg 30%
    12:00 +12°C° 0 mm 1 mps 749 mmHg 30%
    13:00 +13°C° 0 mm 2 mps 749 mmHg 31%
    14:00 +13°C° 0 mm 2 mps 748 mmHg 33%
    15:00 +14°C° 0 mm 2 mps 748 mmHg 35%
    16:00 +13°C° 0 mm 2 mps 748 mmHg 39%
    17:00 +11°C° 0 mm 1 mps 749 mmHg 43%
    18:00 +10°C° 0 mm 1 mps 749 mmHg 47%
    19:00 +10°C° 0 mm 1 mps 750 mmHg 50%
    20:00 +9°C° 0 mm 1 mps 750 mmHg 53%
    21:00 +9°C° 0 mm 1 mps 751 mmHg 57%
    22:00 +9°C° 0 mm 1 mps 751 mmHg 60%
    23:00 +9°C° 0 mm 1 mps 752 mmHg 64%

    26 January, Saturday

    Time Temperature Precipitation Wind Pressure Humidity
    00:00 +9°C° 0 mm 1 mps 752 mmHg 68%
    01:00 +8°C° 0 mm 1 mps 752 mmHg 68%
    02:00 +7°C° 0 mm 2 mps 752 mmHg 69%
    03:00 +7°C° 0 mm 2 mps 752 mmHg 69%
    04:00 +6°C° 0 mm 2 mps 752 mmHg 68%
    05:00 +6°C° 0 mm 2 mps 753 mmHg 68%
    06:00 +6°C° 0 mm 2 mps 753 mmHg 67%
    07:00 +7°C° 0 mm 2 mps 753 mmHg 64%
    08:00 +9°C° 0 mm 1 mps 754 mmHg 60%
    09:00 +9°C° 0 mm 1 mps 754 mmHg 57%
    10:00 +11°C° 0 mm 1 mps 754 mmHg 53%
    11:00 +12°C° 0 mm 1 mps 753 mmHg 50%
    12:00 +14°C° 0 mm 1 mps 753 mmHg 46%
    13:00 +14°C° 0 mm 1 mps 753 mmHg 46%
    14:00 +14°C° 0 mm 1 mps 752 mmHg 46%
    15:00 +15°C° 0 mm 1 mps 752 mmHg 46%
    16:00 +14°C° 0 mm 1 mps 751 mmHg 51%
    17:00 +13°C° 0 mm 1 mps 751 mmHg 56%
    18:00 +11°C° 0 mm 0 mps 751 mmHg 61%
    19:00 +11°C° 0 mm 1 mps 751 mmHg 65%
    20:00 +11°C° 0 mm 1 mps 751 mmHg 69%
    21:00 +9°C° 0 mm 2 mps 751 mmHg 72%
    22:00 +9°C° 0 mm 2 mps 751 mmHg 76%
    23:00 +9°C° 0 mm 3 mps 750 mmHg 81%

    27 January, Sunday

    Time Temperature Precipitation Wind Pressure Humidity
    00:00 +8°C° 0 mm 3 mps 750 mmHg 85%
    01:00 +8°C° 0 mm 3 mps 749 mmHg 83%
    02:00 +8°C° 0 mm 2 mps 749 mmHg 82%
    03:00 +8°C° 0 mm 2 mps 748 mmHg 81%
    04:00 +7°C° 0 mm 2 mps 748 mmHg 79%
    05:00 +7°C° 0 mm 2 mps 748 mmHg 76%
    06:00 +7°C° 0 mm 2 mps 748 mmHg 74%
    07:00 +7°C° 0 mm 2 mps 748 mmHg 71%
    08:00 +8°C° 0 mm 2 mps 748 mmHg 67%
    09:00 +8°C° 0 mm 2 mps 748 mmHg 64%
    10:00 +10°C° 0 mm 2 mps 748 mmHg 55%
    11:00 +12°C° 0 mm 2 mps 748 mmHg 46%
    12:00 +13°C° 0 mm 3 mps 748 mmHg 38%
    13:00 +13°C° 0 mm 3 mps 747 mmHg 34%
    14:00 +13°C° 0 mm 4 mps 747 mmHg 31%
    15:00 +13°C° 0 mm 4 mps 747 mmHg 27%
    16:00 +12°C° 0 mm 5 mps 747 mmHg 26%
    17:00 +10°C° 0 mm 6 mps 748 mmHg 25%
    18:00 +8°C° 0 mm 7 mps 748 mmHg 25%
    19:00 +8°C° 0 mm 6 mps 748 mmHg 28%
    20:00 +7°C° 0 mm 5 mps 749 mmHg 31%
    21:00 +6°C° 0 mm 4 mps 749 mmHg 34%
    22:00 +6°C° 0 mm 5 mps 749 mmHg 36%
    23:00 +6°C° 0 mm 5 mps 749 mmHg 38%

    28 January, Monday

    Time Temperature Precipitation Wind Pressure Humidity
    00:00 +4°C° 0 mm 6 mps 748 mmHg 41%
    01:00 +4°C° 0 mm 6 mps 748 mmHg 42%
    02:00 +4°C° 0 mm 6 mps 748 mmHg 44%
    03:00 +4°C° 0 mm 7 mps 747 mmHg 46%
    04:00 +3°C° 0 mm 6 mps 747 mmHg 46%
    05:00 +3°C° 0 mm 6 mps 747 mmHg 45%
    06:00 +3°C° 0 mm 6 mps 747 mmHg 44%
    07:00 +4°C° 0 mm 7 mps 747 mmHg 40%
    08:00 +4°C° 0 mm 7 mps 747 mmHg 36%
    09:00 +5°C° 0 mm 8 mps 747 mmHg 32%
    10:00 +6°C° 0 mm 7 mps 747 mmHg 28%
    11:00 +8°C° 0 mm 7 mps 747 mmHg 25%
    12:00 +9°C° 0 mm 7 mps 747 mmHg 21%
    13:00 +9°C° 0 mm 7 mps 747 mmHg 21%
    14:00 +9°C° 0 mm 7 mps 747 mmHg 21%
    15:00 +9°C° 0 mm 6 mps 746 mmHg 21%
    16:00 +8°C° 0 mm 6 mps 747 mmHg 23%
    17:00 +7°C° 0 mm 5 mps 747 mmHg 26%
    18:00 +6°C° 0 mm 5 mps 748 mmHg 29%
    19:00 +5°C° 0 mm 5 mps 748 mmHg 30%
    20:00 +5°C° 0 mm 5 mps 749 mmHg 32%
    21:00 +4°C° 0 mm 4 mps 750 mmHg 34%
    22:00 +4°C° 0 mm 4 mps 750 mmHg 34%
    23:00 +4°C° 0 mm 4 mps 750 mmHg 35%
    Show more